FENGYUN 1C DEB, 30679

Orbit data source: Space-Track

FENGYUN 1C DEB, 30679 is space debris in SSO originally from a launch on Mon, 10 May 1999 UTC launched from the Taiyaun Space Center, China (TSC). Fengyun 1C debris stems from the Chinese weather satellite Fengyun-1C, which was intentionally destroyed by a Chinese anti-satellite missile in 2007. This event dramatically increased the amount of space debris, with thousands of trackable fragments posing hazards to satellites and human spaceflight. The Fengyun 1C debris cloud has become a focal point in discussions about space sustainability and the need for international regulations to prevent the creation of new debris.

Loading next visibility...
Identifier
30679, 1999-025AQM
Orbit
SSO
Country
Flag of CNCN / PRC
Related business
Manufacturer
Unknown
Mission
Spacecraft
Bus & Motor
Unknown
Mass
Unknown
Launch date (UTC)
1999-05-10 (27 years ago)
Launch vehicle
Unknown
Launch site
Taiyaun Space Center, China (TSC)
Object type
Payload
Rocket body
Debris
Shape & HBR
Unknown shape, 0.1 m
Radar Cross Section
Small (<0.1 m²)

Expand to show TLE details & history
Last TLE update: 1 day ago

TLE from 1 day ago
0 FENGYUN 1C DEB
1 30679U 99025AQM 26263.39087015  .00000250  00000-0  25295-3 0  9995
2 30679  99.3520 317.3284 0171252  54.7498   8.3443 13.80055249984042
Epoch: 2026-09-20T09:22Z
TLE epoch observation values (Epoch: 2026-09-20T09:22:51.180Z)
Latitude
61.99781°
Longitude
159.38682°
Altitude
849.87 km
Speed
7.496 km/s
True Right ascension
19h 57m 32s
True Declination
61° 51' 25"
Sunlit
Object was in daylight at epoch
Visualization orbit readout
Latitude
Unknown
Longitude
Unknown
Altitude
Unknown
Speed
Unknown
Apparent Right ascension
Unknown
Apparent Declination
Unknown
Sunlit
N/A
Visualization observer readout
Local Sidereal Time
02:03:11
Azimuth
Unknown
Elevation
Unknown
Doppler factor
Unknown
Orbital elements
Apogee altitude
1,086.616 km
Perigee altitude
835.25 km
Semi-major axis
7,339.07 km
Eccentricity
0.01713
Inclination
99.352°
RAAN
317.3284°
Arg. of periapsis
54.7498°
True anomaly
8.63524°
Mean anomaly
8.3443°
Eccentric anomaly
8.48915°
Mean motion
3.45209 °/min
Orbital period
104.28 mins
BSTAR
0.00025295
Loading maneuver chart data...
Computing Atmospheric mass density...

Documentation

Showing up to 5 results
|